Glendale Luke AFB, AZ

6:29 AM MST on December 15, 2019 (GMT -0700)
Luke Air Force Base

Weather History for KLUF - August, 2019

Change the Weather History Date:

Saturday, August 24, 2019

  Actual Average Record
Temperature  
Mean Temperature 93 °F -  
Max Temperature 101 °F 105 °F 116 °F (1985)
Min Temperature 85 °F 72 °F 61 °F (1965)
Cooling Degree Days 28    
Growing Degree Days 43 (Base 50)    
Moisture  
Dew Point 66 °F    
Average Humidity 41    
Maximum Humidity 58    
Minimum Humidity 27    
Precipitation  
Precipitation 0.00 in - - ()
Sea Level Pressure  
Sea Level Pressure 29.85 in    
Wind  
Wind Speed 12 mph (WSW)    
Max Wind Speed 21 mph    
Max Gust Speed 28 mph    
Visibility 10 miles    
Events      
Averages and records for this station are not official NWS values.
T = Trace of Precipitation, MM = Missing Value Source: NWS Daily Summary

Daily Weather History Graph

Daily Weather History Graph

Search for Another Location

Airport or City:

Astronomy

Aug. 24, 2019 Rise Set
Actual Time 5:58 AM MST 7:05 PM MST
Civil Twilight 5:32 AM MST 7:30 PM MST
Nautical Twilight 5:01 AM MST 8:01 PM MST
Astronomical Twilight 4:29 AM MST 8:33 PM MST
Moon No Moon Rise 2:17 PM MST (8/24)
Length of Visible Light 13h 58m
Length of Day
13h 07m
Last Quarter, 38% of the Moon is Illuminated
Aug 24
Last Quarter
Aug 30
New
Sep 5
First Quarter
Sep 13
Full
Sep 21
Last Quarter

Hourly Weather History & Observations

Time (MST) Temp. Heat Index Dew Point Humidity Pressure Visibility Wind Dir Wind Speed Gust Speed Precip Events Conditions
12:58 AM 88.9 °F 90.7 °F 65.3 °F 45% 29.83 in 10.0 mi West 18.4 mph - N/A   Clear
12:59 AM 89.6 °F 92.2 °F 66.2 °F 46% 29.83 in 10.0 mi West 16.1 mph - N/A   Partly Cloudy
1:58 AM 87.8 °F 91.4 °F 68.0 °F 52% 29.83 in 10.0 mi West 8.1 mph - N/A   Clear
2:58 AM 87.6 °F 91.9 °F 68.9 °F 54% 29.85 in 10.0 mi West 9.2 mph - N/A   Clear
3:58 AM 86.4 °F 89.0 °F 67.1 °F 52% 29.85 in 10.0 mi NE 3.5 mph - N/A   Clear
4:58 AM 85.5 °F 88.8 °F 68.4 °F 56% 29.86 in 10.0 mi NNW 3.5 mph - N/A   Clear
5:58 AM 85.6 °F 89.7 °F 69.1 °F 58% 29.88 in 10.0 mi SSW 5.8 mph - N/A   Clear
6:58 AM 86.2 °F 90.7 °F 69.6 °F 58% 29.90 in 10.0 mi WSW 10.4 mph - N/A   Clear
7:58 AM 87.8 °F 93.0 °F 70.5 °F 56% 29.92 in 10.0 mi West 13.8 mph - N/A   Clear
8:58 AM 89.2 °F 94.5 °F 70.3 °F 53% 29.93 in - West 11.5 mph - N/A   Unknown
9:58 AM 90.3 °F 94.7 °F 68.5 °F 49% 29.92 in 10.0 mi WSW 6.9 mph - N/A   Clear
10:58 AM 92.5 °F 96.9 °F 68.5 °F 45% 29.91 in 10.0 mi SW 10.4 mph - N/A   Partly Cloudy
11:58 AM 94.8 °F 99.8 °F 68.7 °F 42% 29.90 in 10.0 mi SSW 6.9 mph 18.4 mph N/A   Scattered Clouds
12:21 PM 95.0 °F 99.5 °F 68.0 °F 41% 29.88 in 10.0 mi WSW 15.0 mph 24.2 mph N/A   Partly Cloudy
12:58 PM 95.9 °F 100.1 °F 66.9 °F 39% 29.87 in 10.0 mi SSW 11.5 mph 16.1 mph N/A   Partly Cloudy
1:49 PM 98.6 °F 102.8 °F 66.2 °F 35% 29.86 in 10.0 mi SSW 13.8 mph - N/A   Partly Cloudy
1:58 PM 99.0 °F 102.9 °F 65.7 °F 34% 29.86 in 10.0 mi SSW 11.5 mph - N/A   Partly Cloudy
2:12 PM 98.6 °F 102.8 °F 66.2 °F 35% 29.85 in 10.0 mi WSW 16.1 mph 23.0 mph N/A   Clear
2:58 PM 99.9 °F 102.7 °F 64.6 °F 31% 29.83 in 10.0 mi WSW 12.7 mph 18.4 mph N/A   Clear
3:58 PM 100.6 °F 103.9 °F 64.4 °F 31% 29.81 in 10.0 mi WSW 15.0 mph 18.4 mph N/A   Clear
4:05 PM 100.4 °F 103.6 °F 64.4 °F 31% 29.81 in 10.0 mi West 12.7 mph - N/A   Clear
4:35 PM 100.4 °F 102.4 °F 62.6 °F 29% 29.80 in 10.0 mi West 13.8 mph 19.6 mph N/A   Clear
4:58 PM 101.3 °F 104.0 °F 63.1 °F 29% 29.80 in 10.0 mi SW 15.0 mph - N/A   Clear
5:58 PM 101.1 °F 102.4 °F 61.9 °F 27% 29.79 in 10.0 mi West 12.7 mph - N/A   Clear
6:58 PM 99.3 °F 100.1 °F 61.3 °F 28% 29.80 in 10.0 mi West 12.7 mph - N/A   Clear
7:58 PM 97.5 °F 97.7 °F 59.9 °F 29% 29.81 in 10.0 mi West 9.2 mph - N/A   Clear
8:58 PM 95.7 °F 95.9 °F 61.0 °F 31% 29.82 in 10.0 mi WSW 8.1 mph - N/A   Clear
9:58 PM 95.2 °F 95.5 °F 60.6 °F 32% 29.83 in 10.0 mi SW 11.5 mph - N/A   Clear
10:58 PM 93.6 °F 95.0 °F 63.3 °F 37% 29.84 in 10.0 mi SW 19.6 mph - N/A   Clear
11:58 PM 90.7 °F 92.8 °F 65.7 °F 43% 29.85 in 10.0 mi WSW 20.7 mph 27.6 mph N/A   Clear